Monroe, NC

4:05 AM EST on January 23, 2018 (GMT -0500)
Monroe

Weather History for KEQY - March, 2013

Change the Weather History Date:

Friday, March 22, 2013

  Actual Average (KCLT) Record (KCLT)
Temperature  
Mean Temperature 38 °F -  
Max Temperature 52 °F 62 °F 89 °F (1907)
Min Temperature 25 °F 40 °F 24 °F (1965)
Degree Days  
Heating Degree Days 27    
Moisture  
Dew Point 17 °F    
Average Humidity 44    
Maximum Humidity 75    
Minimum Humidity 25    
Precipitation  
Precipitation 0.00 in - - ()
Sea Level Pressure  
Sea Level Pressure 30.08 in    
Wind  
Wind Speed 4 mph (SW)    
Max Wind Speed 10 mph    
Max Gust Speed -    
Visibility 10 miles    
Events      
Averages and records for this station are not official NWS values.
T = Trace of Precipitation, MM = Missing Value Source: NWS Daily Summary

Daily Weather History Graph

Daily Weather History Graph

Search for Another Location

Airport or City:

Trip Planner

Search our weather history database for the weather conditions in past years. The results will help you decide how hot, cold, wet, or windy it might be!

Date:

Astronomy

Mar. 22, 2013 Rise Set
Actual Time 7:22 AM EDT 7:36 PM EDT
Civil Twilight 6:57 AM EDT 8:01 PM EDT
Nautical Twilight 6:28 AM EDT 8:30 PM EDT
Astronomical Twilight 5:58 AM EDT 9:00 PM EDT
Moon 3:10 PM EDT (3/22) 4:12 AM EDT (3/22)
Length of Visible Light 13h 03m
Length of Day
12h 13m
Waxing Gibbous, 77% of the Moon is Illuminated
Mar 22
Waxing Gibbous
Mar 27
Full
Apr 3
Last Quarter
Apr 10
New
Apr 18
First Quarter

Hourly Weather History & Observations

Time (EDT) Temp. Windchill Dew Point Humidity Pressure Visibility Wind Dir Wind Speed Gust Speed Precip Events Conditions
12:53 AM 30.0 °F 24.1 °F 12.9 °F 49% 30.04 in 10.0 mi NE 5.8 mph - N/A   Clear
1:53 AM 28.9 °F 25.2 °F 12.9 °F 51% 30.05 in 10.0 mi NE 3.5 mph - N/A   Clear
2:53 AM 28.9 °F - 12.0 °F 49% 30.05 in 10.0 mi Calm Calm - N/A   Clear
3:53 AM 27.0 °F - 12.9 °F 56% 30.06 in 10.0 mi Calm Calm - N/A   Clear
4:53 AM 28.0 °F - 16.0 °F 61% 30.06 in 10.0 mi Calm Calm - N/A   Clear
5:53 AM 25.0 °F - 18.0 °F 75% 30.09 in 10.0 mi Calm Calm - N/A   Clear
6:53 AM 25.0 °F - 17.1 °F 72% 30.11 in 10.0 mi Calm Calm - N/A   Clear
7:53 AM 26.1 °F - 16.0 °F 66% 30.13 in 10.0 mi Calm Calm - N/A   Clear
8:53 AM 32.0 °F - 14.0 °F 48% 30.14 in 10.0 mi Calm Calm - N/A   Clear
9:53 AM 34.0 °F - 12.9 °F 42% 30.14 in 10.0 mi Calm Calm - N/A   Clear
10:53 AM 37.0 °F - 12.9 °F 37% 30.14 in 10.0 mi Calm Calm - N/A   Clear
11:53 AM 41.0 °F 37.1 °F 16.0 °F 36% 30.13 in 10.0 mi WSW 5.8 mph - N/A   Clear
12:53 PM 44.1 °F 41.5 °F 16.0 °F 32% 30.11 in 10.0 mi Variable 4.6 mph - N/A   Clear
1:53 PM 46.0 °F 44.8 °F 15.1 °F 29% 30.08 in 10.0 mi Variable 3.5 mph - N/A   Clear
2:53 PM 48.9 °F - 16.0 °F 27% 30.06 in 10.0 mi SW 9.2 mph - N/A   Mostly Cloudy
3:53 PM 50.0 °F - 15.1 °F 25% 30.04 in 10.0 mi West 6.9 mph - N/A   Overcast
4:53 PM 50.0 °F - 17.1 °F 27% 30.04 in 10.0 mi WSW 10.4 mph - N/A   Overcast
5:53 PM 51.1 °F - 16.0 °F 25% 30.04 in 10.0 mi WSW 8.1 mph - N/A   Partly Cloudy
6:53 PM 50.0 °F - 17.1 °F 27% 30.04 in 10.0 mi WSW 8.1 mph - N/A   Clear
7:53 PM 46.0 °F 42.5 °F 19.9 °F 35% 30.05 in 10.0 mi SW 6.9 mph - N/A   Clear
8:53 PM 46.0 °F 43.9 °F 21.0 °F 37% 30.06 in 10.0 mi SSW 4.6 mph - N/A   Overcast
9:53 PM 44.1 °F 42.5 °F 21.9 °F 42% 30.06 in 10.0 mi SSW 3.5 mph - N/A   Mostly Cloudy
10:53 PM 45.0 °F 41.2 °F 26.1 °F 48% 30.07 in 10.0 mi SW 6.9 mph - N/A   Overcast
11:53 PM 45.0 °F 41.2 °F 26.1 °F 48% 30.07 in 10.0 mi SW 6.9 mph - N/A   Overcast